Tracking 25370 objects as of 25-Jan-2022
HD Live streaming from Space Station
objects crossing your sky now

COSMOS 1506

Track COSMOS 1506 now!
10-day predictions
COSMOS 1506 is classified as:


NORAD ID: 14450
Int'l Code: 1983-108A
Perigee: 952.4 km
Apogee: 1,016.0 km
Inclination: 82.9 °
Period: 104.6 minutes
Semi major axis: 7355 km
RCS: 1.705 m2 (large)
Launch date: October 26, 1983
Source: Commonwealth of Independent States (former USSR) (CIS)
Launch site: PLESETSK MISSILE AND SPACE COMPLEX (PKMTR)
aabbcc
Your satellite tracking list
Your tracking list is empty




NASA's NSSDC Master Catalog

Two Line Element Set (TLE):
1 14450U 83108A   22024.94391983  .00000041  00000-0  26256-4 0  9990
2 14450  82.9299  24.8804 0043256 164.1648 258.8343 13.76292215736974
Source of the keplerian elements: AFSPC